Theta_e
308 309 310 309 309 308 308 308 306 305 305 305 304 303 302 302 302 303 305 305 306 306 311 310 309 309 311 315 315 317 320 320 320 320 321 320 321 320 319 320 320 321 321 321 321
306 309 310 310 310 310 309 308 305 305 305 306 305 304 303 302 303 308 312 307 307 306 312 312 312 311 311 312 315 317 319 319 318 319 320 319 318 318 318 318 318 319 319 320 319
305 307 310 309 309 309 307 305 305 305 306 306 306 304 302 302 313 317 312 309 309 309 312 314 312 311 312 312 313 313 318 316 316 317 317 317 317 317 317 318 318 318 318 318 319
308 306 308 306 306 306 306 306 306 306 304 303 304 304 302 303 317 317 312 314 309 310 316 313 309 310 312 314 313 314 314 314 315 315 316 316 315 315 315 316 316 316 317 317 318
308 309 306 306 308 308 308 309 309 309 307 303 302 302 302 303 307 316 312 312 313 312 310 308 311 311 313 311 311 314 313 313 313 312 312 313 313 315 315 315 316 316 316 316 317
309 308 308 307 307 309 310 308 310 311 309 308 302 302 302 304 307 316 313 311 308 308 312 312 313 312 311 312 313 311 311 313 313 314 313 314 315 314 315 315 315 315 316 316 316
311 311 309 309 307 308 311 311 311 312 314 306 302 301 302 304 309 315 315 312 310 314 314 315 315 313 312 313 311 312 314 313 313 314 314 313 314 314 314 314 314 316 316 315 316
313 313 313 309 309 307 310 313 313 313 313 312 303 302 304 306 312 316 315 312 312 315 316 315 314 313 312 311 311 313 312 314 314 312 313 313 315 315 314 314 315 314 315 315 315
313 313 311 313 309 309 308 311 313 315 314 313 306 307 311 311 310 316 315 313 314 314 315 315 315 312 312 314 314 312 313 313 315 313 314 314 315 315 315 314 315 315 315 314 315
313 313 312 311 311 310 310 311 314 315 315 313 310 311 311 314 310 313 316 314 315 314 313 312 312 314 312 313 313 313 313 313 314 315 314 315 315 316 315 315 314 314 315 314 314
310 309 310 311 313 310 310 313 315 314 314 316 314 313 314 316 316 318 313 315 313 313 315 311 315 315 315 314 313 313 313 314 314 315 313 316 317 317 316 316 316 316 316 316 315
307 307 308 309 313 311 310 314 315 315 315 315 315 315 315 315 315 316 314 312 312 314 312 313 314 314 314 312 312 312 314 315 315 314 314 316 317 317 317 316 315 316 316 316 316
304 305 307 310 313 310 309 315 316 315 315 314 314 314 315 314 315 315 313 312 313 312 312 314 314 312 312 313 313 314 314 315 315 315 316 317 317 317 316 314 315 315 315 315 315
303 304 306 309 313 312 310 314 316 316 316 315 316 316 315 314 315 315 314 312 313 313 311 313 313 312 313 313 314 315 314 314 314 316 317 317 318 318 317 317 316 316 316 315 314
309 311 311 312 311 312 313 315 316 315 317 318 316 316 315 315 315 316 316 312 314 314 313 315 313 313 314 314 313 315 313 315 316 317 318 317 318 318 317 317 317 316 315 316 316
307 309 310 312 312 311 311 315 315 318 317 318 316 316 316 316 314 314 316 315 314 314 313 314 312 313 315 314 313 316 316 317 316 318 318 318 318 318 317 317 316 316 316 316 315
310 311 311 312 312 308 313 316 316 316 317 316 315 315 315 316 316 315 315 317 317 316 316 316 315 315 313 314 316 316 317 318 318 318 319 317 317 317 316 316 315 316 316 315 314
311 313 311 313 312 312 314 317 314 316 316 315 314 315 317 314 314 313 314 314 314 314 315 315 316 314 315 315 316 317 318 318 320 319 318 316 317 317 315 314 314 315 316 314 314
313 314 311 312 312 311 315 316 312 318 315 315 314 315 316 312 312 312 312 313 313 313 316 315 315 314 316 316 316 318 318 317 318 318 319 316 315 315 314 314 315 315 314 313 314
313 313 312 311 314 314 314 313 315 316 315 316 316 313 314 313 315 314 314 314 315 314 313 315 316 313 315 316 315 317 316 319 319 318 316 314 314 313 313 314 315 314 314 313 314
312 312 312 313 315 315 319 315 315 316 315 316 316 315 314 315 315 313 313 313 313 312 313 314 315 314 315 316 315 317 318 317 316 317 317 316 312 314 314 313 313 314 313 313 314
309 313 312 317 318 311 316 312 312 315 315 316 315 313 313 312 314 314 314 314 314 312 312 313 316 315 314 314 312 313 317 318 320 316 318 318 316 312 312 312 313 312 312 313 314
308 309 312 314 316 312 311 312 312 314 315 315 316 315 315 314 313 312 312 311 310 311 312 313 313 314 314 312 312 315 314 315 315 314 313 315 314 313 312 312 312 311 312 314 313
308 312 309 309 308 309 310 312 313 311 313 314 315 314 313 312 312 313 312 309 309 308 311 312 313 314 315 314 313 314 314 314 315 317 316 316 314 313 313 312 312 312 313 313 313
307 309 307 310 309 308 308 310 310 311 312 312 313 313 312 313 312 314 312 312 310 309 309 311 312 311 311 312 312 311 311 312 314 314 315 314 313 312 312 312 312 313 313 313 311
306 306 305 306 307 307 308 310 311 311 311 312 312 311 312 311 311 312 311 310 310 308 309 309 311 311 310 309 309 309 309 309 311 312 312 312 312 312 312 313 314 314 313 311 310
305 304 305 306 307 308 309 308 309 307 308 310 309 309 311 310 309 309 309 309 308 309 308 309 309 309 309 308 310 310 309 309 309 310 310 311 312 315 315 315 314 313 312 310 309
Wind_Speed
22 18 15 13 10 10 9 8 7 6 8 3 5 6 6 6 8 11 13 9 10 12 8 9 10 12 12 8 7 7 4 7 8 6 5 4 4 9 9 12 9 8 11 13 17
25 21 17 14 12 9 9 8 7 6 5 3 4 5 6 7 10 9 4 7 9 16 12 10 12 13 7 7 6 5 5 8 4 6 8 12 12 11 8 13 15 16 18 19 18
26 23 19 15 12 10 8 7 7 6 5 3 3 5 5 7 1 1 4 8 10 18 12 10 11 9 5 7 5 4 6 5 6 10 9 11 12 13 12 14 15 17 22 20 19
29 25 21 16 13 11 9 7 7 7 5 3 3 4 3 1 4 3 7 11 13 15 12 11 11 8 5 6 6 4 6 6 4 9 11 11 10 11 15 18 20 20 21 22 20
29 27 22 17 13 11 10 9 8 7 6 3 3 3 3 4 3 5 7 8 10 10 10 12 13 6 4 4 7 5 3 6 11 11 13 15 14 13 11 15 11 18 16 17 17
29 28 24 19 14 12 9 8 8 8 7 5 4 3 3 4 7 7 6 5 8 15 14 13 7 5 6 4 4 6 3 4 7 11 8 12 17 3 7 13 15 15 17 14 16
28 29 27 23 16 13 11 8 8 9 8 6 4 4 7 6 9 10 9 7 12 12 10 6 5 3 8 5 3 2 4 5 13 8 7 6 12 9 15 7 10 14 13 14 14
28 30 29 26 20 15 11 11 11 10 9 6 4 5 6 6 12 13 12 11 13 11 7 2 3 2 1 6 3 3 3 4 2 3 3 6 11 9 5 11 14 15 13 15 13
24 30 31 29 23 16 14 13 13 8 8 6 4 4 5 6 14 14 12 12 13 8 5 3 2 2 3 2 2 2 4 2 5 3 4 4 8 9 21 18 17 14 15 17 18
24 29 31 31 27 17 12 13 12 8 5 5 7 5 4 2 8 14 15 12 8 7 5 4 3 4 3 5 4 5 4 3 7 2 7 14 14 11 16 13 15 16 15 19 20
26 29 31 30 29 18 8 7 6 4 5 8 5 4 6 2 5 8 18 16 8 2 7 2 5 11 13 10 4 4 6 9 12 13 5 11 12 12 17 19 18 17 16 16 22
26 26 28 29 29 15 7 4 3 8 10 17 19 22 16 6 1 6 13 11 7 9 4 4 11 12 8 8 8 7 9 11 11 11 7 12 14 15 15 12 12 15 21 26 28
27 27 27 27 22 10 5 4 3 9 5 6 5 6 11 19 7 8 16 11 7 8 9 11 3 9 9 8 9 10 10 10 11 9 8 12 15 10 8 13 17 19 21 24 26
28 27 28 27 12 15 5 7 5 5 2 3 3 3 8 9 6 16 18 12 5 12 8 9 13 12 8 10 10 12 10 13 10 8 10 4 9 16 11 8 9 19 21 19 23
29 29 27 24 22 11 4 3 4 0 1 2 3 5 9 9 5 7 20 12 10 7 6 4 5 6 8 9 12 9 4 9 10 11 8 13 13 3 11 16 13 8 19 23 24
32 29 27 21 16 3 9 3 4 2 2 3 4 3 3 4 1 5 8 5 4 6 8 10 3 4 7 2 9 2 4 4 2 5 13 16 13 5 8 13 11 16 12 17 24
37 29 19 15 2 9 7 7 2 3 4 4 4 3 4 3 5 3 7 10 10 6 10 11 17 11 10 13 7 6 6 7 7 8 12 5 10 13 15 16 12 9 10 18 24
33 13 8 3 8 11 7 2 3 2 4 5 9 7 1 2 3 3 2 5 7 8 8 6 9 5 5 12 9 9 10 7 9 12 16 12 9 9 5 14 15 12 12 20 24
17 18 18 6 9 9 4 2 0 1 2 6 8 2 4 2 1 2 4 3 2 7 7 5 5 1 3 2 2 5 7 1 6 6 10 11 14 11 13 11 7 10 17 24 27
16 6 20 8 6 4 2 1 2 3 4 4 3 7 5 1 5 5 2 4 2 3 4 4 6 2 2 3 6 3 7 3 1 7 16 10 15 12 15 7 10 13 18 24 26
12 4 15 1 3 3 0 1 3 7 7 2 4 2 7 11 10 4 3 1 3 1 2 1 5 5 1 6 11 4 4 2 1 3 6 12 6 3 9 12 15 11 21 23 21
12 1 14 1 2 3 2 5 8 3 5 2 1 3 7 7 6 4 10 7 13 2 7 1 3 9 15 11 4 5 9 9 6 6 5 8 17 15 19 11 8 20 28 21 17
13 6 11 3 2 3 5 5 5 6 2 1 3 5 2 3 4 8 7 2 4 3 2 1 2 5 4 4 3 6 6 7 4 6 16 15 13 5 6 15 25 26 22 16 15
7 4 7 12 7 4 6 3 5 12 9 5 5 5 4 6 10 5 7 4 7 3 8 1 6 11 11 10 5 7 11 14 14 8 16 18 28 25 22 21 21 22 15 15 16
8 3 3 4 4 6 2 4 10 4 3 2 2 4 1 3 4 7 12 16 16 13 10 9 11 16 18 21 18 15 15 14 17 21 20 25 25 24 24 22 21 17 15 14 16
4 4 4 4 4 4 2 2 6 6 3 2 4 9 8 5 7 5 5 7 6 4 9 3 10 5 12 11 14 18 21 21 23 24 24 25 30 21 18 12 13 16 17 19 21
4 4 1 2 3 2 0 4 6 10 6 9 6 8 7 13 17 17 18 18 16 14 10 6 6 5 13 7 9 12 18 19 20 19 16 18 20 10 13 14 18 19 19 25 28
Wind_Direction
6 3 0 348 337 326 314 308 299 280 262 335 289 277 272 266 266 263 260 246 217 209 182 159 168 186 189 174 161 156 191 223 232 220 235 226 287 309 306 288 297 297 280 306 314
9 6 5 2 350 340 328 315 308 303 310 296 286 280 275 281 289 274 225 204 198 187 170 161 157 154 151 154 166 186 213 216 221 233 260 276 291 296 288 291 289 285 277 292 303
9 7 5 3 360 351 344 336 326 321 316 313 286 269 276 306 332 79 153 170 168 170 173 173 161 151 131 156 162 156 225 198 228 241 260 271 276 280 280 282 279 285 296 296 296
9 5 3 4 6 5 3 359 353 342 338 321 278 261 268 306 140 118 139 152 153 171 175 172 161 146 146 162 161 187 237 203 262 251 267 264 283 272 261 268 283 283 290 295 293
11 8 1 1 3 7 5 6 5 0 346 323 286 261 263 254 205 151 144 151 175 181 181 168 155 142 158 154 145 194 231 211 254 267 261 267 253 260 266 274 291 300 296 297 295
12 13 8 358 352 350 356 352 353 360 352 336 307 269 243 252 173 168 156 140 155 150 148 147 167 157 121 140 192 171 222 251 271 263 262 269 273 227 242 279 284 289 292 292 298
11 10 8 0 348 339 340 343 339 334 340 335 311 287 256 221 183 179 173 153 144 147 148 137 119 141 143 147 153 161 258 256 236 254 244 251 268 242 269 288 296 299 294 291 293
12 10 4 0 350 333 325 328 325 315 308 311 292 294 256 198 188 184 184 176 170 165 133 95 133 119 136 130 99 196 203 265 153 206 236 196 266 287 309 324 315 307 309 310 316
2 3 2 356 350 335 316 316 319 300 291 274 278 286 267 212 198 188 185 173 168 177 169 212 176 115 126 180 267 32 262 264 305 193 280 229 298 298 300 308 309 306 299 307 314
345 347 351 351 344 332 310 312 319 308 264 250 255 287 243 159 173 199 193 176 163 152 146 155 131 173 132 190 230 169 203 234 261 246 289 296 289 291 306 312 302 298 293 299 304
334 336 339 340 340 323 287 310 336 308 258 233 231 243 263 263 227 197 203 197 191 138 196 117 209 217 213 209 221 238 242 257 265 273 276 278 285 290 302 304 303 303 298 288 294
333 334 336 339 338 319 247 248 268 302 296 283 259 255 237 182 0 185 187 179 183 207 149 199 243 239 213 202 218 220 256 263 272 262 215 278 277 289 282 279 279 288 295 297 296
332 333 331 340 342 356 239 205 281 325 285 295 241 230 232 221 228 212 176 172 186 193 202 224 210 103 194 211 228 234 236 261 271 303 245 279 280 270 270 247 272 276 275 278 283
327 326 328 331 336 327 276 194 289 313 330 272 235 182 159 156 216 208 189 173 184 217 190 242 249 246 226 240 220 263 229 254 270 281 290 12 291 295 297 275 266 283 298 313 308
323 322 318 318 313 303 200 202 296 242 18 60 82 124 166 184 136 189 195 198 206 179 188 209 182 169 204 233 185 255 204 255 277 270 290 279 279 226 285 293 291 329 326 327 329
328 325 314 307 310 230 182 216 144 207 256 42 120 140 161 240 13 110 178 201 208 209 232 258 254 239 255 192 205 154 260 287 268 279 262 270 261 290 291 291 298 311 325 338 343
335 327 308 294 256 153 163 149 176 231 338 22 22 345 250 238 231 221 178 193 211 194 235 255 244 256 232 256 189 214 255 271 258 239 267 329 289 270 290 282 296 289 315 333 331
348 6 22 63 166 159 145 125 226 68 34 1 346 338 237 39 7 355 156 221 220 237 262 261 271 214 186 226 248 207 218 232 267 273 286 306 264 288 285 300 298 284 320 334 336
10 47 34 33 150 155 151 175 281 142 57 7 360 52 300 73 24 321 322 288 264 182 224 199 248 267 50 123 232 155 211 308 275 243 275 264 269 272 272 290 338 341 343 346 336
356 14 22 81 105 124 85 262 99 37 34 40 126 356 349 110 210 302 301 288 261 230 251 197 268 204 111 103 60 233 137 189 213 283 283 273 283 271 287 292 318 325 337 337 330
357 55 7 4 43 49 92 20 7 64 85 113 167 240 278 285 291 301 237 164 358 28 358 166 250 237 223 229 248 177 199 105 317 212 273 297 267 205 271 296 304 301 322 325 324
1 32 5 6 26 29 48 340 340 6 49 171 151 232 239 254 283 242 255 257 289 230 272 4 262 257 260 271 274 261 240 216 224 226 235 264 280 275 273 282 259 293 312 313 315
351 322 6 47 52 31 346 335 331 7 22 138 206 199 215 277 279 295 273 318 218 196 155 123 244 277 250 208 188 235 206 218 231 255 249 263 267 189 215 295 298 303 306 305 318
359 344 6 52 68 38 3 325 336 342 312 266 260 276 259 246 204 269 238 276 329 347 346 317 258 255 259 288 304 263 240 228 224 236 262 252 273 279 288 293 303 300 293 304 314
19 50 10 347 14 351 292 311 307 299 258 13 280 300 164 257 239 228 255 263 280 309 287 240 245 256 258 264 268 264 258 245 229 243 253 273 275 287 296 297 292 285 287 302 313
40 1 355 308 295 325 236 269 291 353 335 295 253 292 234 232 253 275 278 279 275 276 274 228 256 239 266 274 272 270 263 256 253 253 257 264 277 287 295 284 267 273 287 298 305
41 19 25 305 313 280 182 10 322 338 284 253 345 327 273 268 277 286 271 260 255 267 271 252 247 266 277 299 296 270 260 260 258 257 259 261 273 313 281 279 278 287 290 296 301